Terug naar catalogus

DELTA 1 DEB

ActiefSSO
NORAD 37646·DEBRIS·🇺🇸 United States

Gelanceerd Mar 5, 1978 vanaf Vandenberg Space Force Base

Loading…

Volgende Passages (komende 24 uur)

TLE

VersSource: Space-Track

Epoch: Sep 13, 2026, 03:12 UTC

1 37646U 78026JH  26256.13388981  .00000941  00000-0  49172-3 0  9991
2 37646  99.1247 322.4473 0081318 299.8504  59.4605 14.15305925621275

Volg DELTA 1 DEB in realtime met AllMySat

Download on the App Store